Flag for Switzerland Weather past 2 weeks in Langenthal, Bern, Switzerland

Now
73 °F

Mild.


Feels Like: 77 °F
Forecast: 56 / 74 °F
Wind: 9 mph from Northeast

Location: Wynau

Current Time: Jul 31, 2015 at 6:32:41 PM

Latest Report: Jul 31, 2015 at 5:00 PM


Visibility: N/A

Pressure: 29.88 "Hg

Humidity: 36%

Dew point: 45 °F

Location of LangenthalLocation

Historic Weather in Langenthal — Graph

°F

Langenthal temperature yesterday

Maximum temperature yesterday: 71 °F (at 6:00 PM)
Minimum temperature yesterday: 49 °F (at 6:00 AM)
Average temperature yesterday: 61 °F

Past Weeks' High & Low Weather Summary

 TemperatureHumidityPressure
High95 °F (Jul 17, 5:00 PM)98% (Jul 23, 6:00 AM)30.18 "Hg (Jul 23, 6:00 AM)
Low47 °F (Jul 31, 6:00 AM)21% (Jul 16, 6:00 PM)29.63 "Hg (Jul 24, 6:00 PM)
Average70 °F67%29.93 "Hg
* Reported Jul 16 5:00 PM — Jul 31 5:00 PM, Langenthal, Weather by CustomWeather, © 2015

Note: Actual official high and low records may vary slightly from our data, if they occured in-between our weather recording intervals... More about our weather records

Advertising

Langenthal weather history for previous 24 hours

 ConditionsComfort  
Time TempWeatherWind HumidityBarometerVisibility
5:00 PM
Fri, Jul 31
73 °FMild.9 mph36%29.88 "HgN/A
4:00 PM75 °FMild.12 mph35%29.88 "HgN/A
3:00 PM75 °FMild.12 mph34%29.90 "HgN/A
2:00 PM74 °FMild.13 mph36%29.92 "HgN/A
1:00 PM70 °FMild.14 mph39%29.93 "HgN/A
12:00 PM67 °FMild.13 mph44%29.97 "HgN/A
11:00 AM65 °FMild.14 mph48%29.98 "HgN/A
10:00 AM63 °FMild.12 mph53%30.00 "HgN/A
9:00 AM60 °FRefreshingly cool.10 mph59%30.03 "HgN/A
8:00 AM55 °FCool.2 mph83%30.05 "HgN/A
7:00 AM49 °FCool.1 mph95%30.07 "HgN/A
6:00 AM47 °FCool.No wind96%30.08 "HgN/A
4:00 AM49 °FCool.1 mph92%30.09 "HgN/A
3:00 AM51 °FCool.2 mph90%30.08 "HgN/A
2:00 AM51 °FCool.1 mph87%30.08 "HgN/A
1:00 AM54 °FCool.1 mph76%30.07 "HgN/A
12:00 AM56 °FCool.1 mph60%30.06 "HgN/A
11:00 PM
Thu, Jul 30
58 °FCool.1 mph63%30.05 "HgN/A
10:00 PM61 °FRefreshingly cool.2 mph52%30.02 "HgN/A
9:00 PM62 °FMild.3 mph54%30.00 "HgN/A
8:00 PM67 °FMild.5 mph39%29.97 "HgN/A
7:00 PM71 °FMild.6 mph36%29.96 "HgN/A
6:00 PM71 °FMild.6 mph34%29.95 "HgN/A
Weather by CustomWeather, © 2015

See weather overviewHow to use our weather pages